Hourly Data Report for August 19, 2017

All times are specified in Local Standard Time (LST). Add 1 hour to adjust for Daylight Saving Time where and when it is observed.

ST. STEPHEN
NEW BRUNSWICK

45°12'36.600" N
67°15'10.300" W
26.10 m
8104935
71607
WSS

Download Data

Hourly Data (August 2017)
Hourly Data Report for August 19, 2017
Temp Definition
°C
Dew Point Temp Definition
°C
Rel Hum Definition
%
Wind Dir Definition
10's deg

Wind Spd Definition
km/h
Visibility Definition
km
Stn Press Definition
kPa
Hmdx Definition


Wind Chill Definition


Weather Definition


TIME
00:00 14.9 13.7 93 11 8   101.22     LegendNANA
01:00 14.3 13.5 95 11 10   101.15     LegendNANA
02:00 14.3 13.6 96 10 13   101.07     LegendNANA
03:00 14.7 14.0 96 10 15   101.02     LegendNANA
04:00 14.8 14.1 96 10 14   100.91     LegendNANA
05:00 14.7 14.0 95 11 14   100.90     LegendNANA
06:00 14.7 14.0 96 11 13   100.86     LegendNANA
07:00 14.8 14.0 95 11 14   100.84     LegendNANA
08:00 14.9 14.2 96 10 10   100.82     LegendNANA
09:00 15.4 14.7 96 10 9   100.77     LegendNANA
10:00 15.7 14.9 95 11 13   100.76     LegendNANA
11:00 15.9 15.2 95 10 12   100.73     LegendNANA
12:00 16.1 15.4 95 10 14   100.70     LegendNANA
13:00 16.6 15.8 95 11 8   100.64     LegendNANA
14:00 17.1 16.1 94 11 7   100.58     LegendNANA
15:00 17.3 16.2 93 11 7   100.56     LegendNANA
16:00 17.3 16.2 93 9 6   100.58     LegendNANA
17:00 17.5 16.4 93 10 5   100.58     LegendNANA
18:00 17.7 16.5 93 8 4   100.55     LegendNANA
19:00 17.5 16.4 93 0 1   100.57     LegendNANA
20:00 17.1 16.2 95 10 3   100.57     LegendNANA
21:00 16.8 16.1 96 12 3   100.63     LegendNANA
22:00 16.6 16.1 97 0 1   100.63     LegendNANA
23:00 16.5 16.0 97 12 3   100.65     LegendNANA

Notes on Data Quality.

Legend

  • E = Estimated
  • M = Missing
  • NA = Not Available
  • ‡ = Partner data that is not subject to review by the National Climate Archives
Date modified: